Weather History for KIXD - July, 2013

Change the Weather History Date:

Tuesday, July 16, 2013

  Actual Average Record
Temperature  
Mean Temperature 82 °F -  
Max Temperature 93 °F 87 °F 99 °F (2011)
Min Temperature 71 °F 66 °F 52 °F (2014)
Cooling Degree Days 17    
Growing Degree Days 32 (Base 50)    
Moisture  
Dew Point 65 °F    
Average Humidity 60    
Maximum Humidity 87    
Minimum Humidity 35    
Precipitation  
Precipitation 0.00 in - - ()
Sea Level Pressure  
Sea Level Pressure 30.21 in    
Wind  
Wind Speed 3 mph (SSE)    
Max Wind Speed 9 mph    
Max Gust Speed 16 mph    
Visibility 10 miles    
Events      
Averages and records for this station are not official NWS values.
T = Trace of Precipitation, MM = Missing Value Source: NWS Daily Summary

Daily Weather History Graph

Daily Weather History Graph

Search for Another Location

Airport or City:

Trip Planner

Search our weather history database for the weather conditions in past years. The results will help you decide how hot, cold, wet, or windy it might be!

Date:

Astronomy

Jul. 16, 2013 Rise Set
Actual Time 6:07 AM CDT 8:43 PM CDT
Civil Twilight 5:36 AM CDT 9:14 PM CDT
Nautical Twilight 4:58 AM CDT 9:52 PM CDT
Astronomical Twilight 4:14 AM CDT 10:35 PM CDT
Moon 2:27 PM CDT (7/16) 12:36 AM CDT (7/16)
Length of Visible Light 15h 37m
Length of Day
14h 35m
First Quarter, 56% of the Moon is Illuminated
Jul 16
First Quarter
Jul 22
Full
Jul 29
Last Quarter
Aug 6
New
Aug 14
First Quarter

Hourly Weather History & Observations

Time (CDT) Temp. Heat Index Dew Point Humidity Pressure Visibility Wind Dir Wind Speed Gust Speed Precip Events Conditions
12:53 AM 72.0 °F - 64.9 °F 78% 30.17 in 10.0 mi Calm Calm - N/A   Clear
1:53 AM 72.0 °F - 64.9 °F 78% 30.17 in 10.0 mi Calm Calm - N/A   Scattered Clouds
2:53 AM 73.0 °F - 66.9 °F 81% 30.17 in 10.0 mi SSE 4.6 mph - N/A   Mostly Cloudy
3:53 AM 73.9 °F - 68.0 °F 82% 30.17 in 10.0 mi SSE 3.5 mph - N/A   Overcast
4:53 AM 71.1 °F - 66.0 °F 84% 30.18 in 10.0 mi South 3.5 mph - N/A   Scattered Clouds
5:53 AM 71.1 °F - 66.9 °F 87% 30.19 in 10.0 mi Calm Calm - N/A   Mostly Cloudy
6:53 AM 71.1 °F - 66.9 °F 87% 30.21 in 10.0 mi Calm Calm - N/A   Clear
7:53 AM 75.9 °F - 68.0 °F 76% 30.22 in 10.0 mi SE 3.5 mph - N/A   Clear
8:53 AM 79.0 °F - 66.9 °F 66% 30.24 in 10.0 mi SSE 3.5 mph - N/A   Clear
9:53 AM 82.0 °F 84.5 °F 66.9 °F 60% 30.25 in 10.0 mi SE 3.5 mph - N/A   Clear
10:53 AM 84.0 °F 86.5 °F 66.9 °F 56% 30.25 in 10.0 mi Variable 3.5 mph - N/A   Clear
11:53 AM 87.1 °F 89.9 °F 66.9 °F 51% 30.25 in 10.0 mi SE 6.9 mph - N/A   Clear
12:53 PM 89.1 °F 92.1 °F 66.9 °F 48% 30.24 in 10.0 mi Variable 3.5 mph - N/A   Partly Cloudy
1:53 PM 91.9 °F 93.3 °F 64.0 °F 39% 30.22 in 10.0 mi Variable 4.6 mph - N/A   Scattered Clouds
2:53 PM 91.9 °F 93.3 °F 64.0 °F 39% 30.20 in 10.0 mi Variable 4.6 mph - N/A   Partly Cloudy
3:53 PM 91.9 °F 93.3 °F 64.0 °F 39% 30.19 in 10.0 mi SSW 6.9 mph - N/A   Scattered Clouds
4:53 PM 93.9 °F 94.8 °F 62.1 °F 35% 30.18 in 10.0 mi SSW 9.2 mph 16.1 mph N/A   Scattered Clouds
5:53 PM 91.0 °F 90.9 °F 61.0 °F 36% 30.19 in 10.0 mi SE 5.8 mph - N/A   Partly Cloudy
6:53 PM 91.0 °F 90.9 °F 61.0 °F 36% 30.19 in 10.0 mi SSE 4.6 mph - N/A   Clear
7:53 PM 90.0 °F 90.3 °F 62.1 °F 39% 30.19 in 10.0 mi ESE 4.6 mph - N/A   Clear
8:53 PM 86.0 °F 87.3 °F 64.0 °F 48% 30.20 in 10.0 mi ESE 4.6 mph - N/A   Clear
9:53 PM 82.9 °F 84.6 °F 64.9 °F 54% 30.22 in 10.0 mi ESE 4.6 mph - N/A   Mostly Cloudy
10:53 PM 80.1 °F 82.1 °F 66.0 °F 62% 30.25 in 10.0 mi SSE 6.9 mph - N/A   Clear
11:53 PM 78.1 °F - 66.9 °F 68% 30.25 in 10.0 mi SSE 4.6 mph - N/A   Clear